Dauntless Aviation
Greetings, Guest! To participate, [sign up for a free account] or [log in]
Airports Europe Germany
EDSW

Altdorf-Wallburg

Altdorf-Wallburg, GERMANY

Airport Info
Edit

Location

Latitude / Longitude: 48°16'11"N / 7°50'31"E
  48°16.188'N / 7°50.532'E
  48.2698 / 7.8422
Satellite photo at:
Airport distance calculator
From:
Weather Reports

METAR

LFST
18.2nm NW
LFST 050200Z AUTO 31006KT 9999 OVC042/// 03/M00 Q1034

TAF

LFST
18.2nm NW
TAF LFST 042300Z 0500/0524 31008KT 9999 FEW020 SCT050 TEMPO 0504/0509 BKN015 BECMG 0509/0511 02010KT BECMG 0518/0521 32005KT
EDSB
32.3nm N
TAF EDSB 041700Z 0418/0518 25007KT 9999 SCT030 PROB30 TEMPO 0418/0421 30015G25KT SHRA BKN020CB BECMG 0506/0509 01006KT
Safelog

 

Dauntless Aviation

© 2007-2015 Dauntless Aviation, all rights reserved
Information provided via PilotNav comes from a variety of official and unofficial data sources. As errors are possible, do not use PilotNav for primary flight planning purposes. Verify any information that you receive via PilotNav with current and canonical charts and other official documents. The material in this database is subject to database copyrights held by Dauntless Aviation and may not be copied without the express permission of Dauntless Aviation - licenses for use of part of all of this data are available for purchase; enquire via the Dauntless Aviation helpdesk. A number of mechanisms and markers exist in the database to protect against and identify infringement / copyright. Automated queries against this website are stictly prohibited, and all activity is logged and analyzed.